Location: Arrodets-la-Barthe
(43.0306°N, 0.2829°E)
Time: 00:34:45
(UTC+00:00)

NOAA 19 - Pass Details

Date: 05 April 2023
Orbit: 840 x 859 km, 99.1° (Epoch: 29 May)

Event Time Altitude Azimuth Distance (km) Brightness Sun altitude
Exits shadow 21:00:16 - 207° (SSW) 3,074 8.0 -25.9°
Reaches altitude 10° 21:02:16 10° 219° (SW) 2,461 7.6 -26.2°
Maximum altitude 21:06:18 21° 267° (W) 1,815 7.4 -26.8°
Drops below altitude 10° 21:10:21 10° 315° (NW) 2,468 8.6 -27.3°
Sets 21:13:20 0° 332° (NNW) 3,406 9.4 -27.7°
